Content
SEND FEEDBACK

Daily
Averages
Monthly
Summary
Canada

VANCOUVER, BRITISH COLUMBIA


Home > North America > Canada > British Columbia
Elevation: 2 meters     Latitude: 49 11N     Longitude: 123 10W

WEATHER
 
SELECT A DAY
Number of Records: 252,960;   Date Range: 5/15/97 - 10/20/14
 
SHARE

PRINT THIS DATA

[ ← Previous Day ]
WEATHER ALMANAC - 24 JANUARY, 2013
[ Next Day → ]
[ °F ]   °C
Weather ElementAverageHighLow
Temperature5.6 °C7 °C (11:15 am)3 °C (4:35 am)
Dewpoint3.1 °C4 °C (12:55 am)0 °C (3:35 pm)
Humidity84.8 %100 % (7:35 am)61 % (3:35 pm)
Barometer1019 hPa1022 hPa (5:55 am)1014.6 hPa (10:35 pm)
Wind Speed9.5 km/h22.2 km/h (11:55 pm)
Wind Gust40.7 km/h (11:55 pm)
Weather ElementAverage
Visibility15.4 km
Wind DirectionSE (140.3 °)

Weather ElementTotal
Precipitation---
Heating Degree Days13.3 (Base 18.3)
Averaged from 64 records on 24 January, 2013
WEATHER CONDITIONS BREAKOUT
WIND DIRECTION BREAKOUT
WEATHER BY HOUR - 24 JANUARY, 2013
[ °F ]   °C
Local TimeTemperatureDewpointHumidityBarometerVisibilityWind DirectionWind SpeedGust SpeedPrecipitationEventsConditions
12:35 AM4 °C3 °C93 %1019 hPa16.1 kmSSW (210°)11.1 km/hClear
12:55 AM5 °C4 °C93 %1019.3 hPa16.1 kmSSW (200°)11.1 km/hClear
1:15 AM4 °C3 °C93 %1019.6 hPa16.1 kmSouth (190°)9.3 km/hClear
1:35 AM5 °C3 °C87 %1019.6 hPa16.1 kmSouth (190°)9.3 km/hClear
1:55 AM5 °C3 °C87 %1020 hPa16.1 kmSouth (190°)9.3 km/hClear
2:15 AM4 °C3 °C93 %1020.3 hPa16.1 kmSouth (190°)9.3 km/hClear
2:35 AM4 °C3 °C93 %1020.7 hPa16.1 kmSouth (190°)9.3 km/hClear
2:55 AM4 °C3 °C93 %1021 hPa16.1 kmSouth (190°)9.3 km/hClear
3:15 AM4 °C3 °C93 %1021 hPa16.1 kmSouth (180°)5.6 km/hClear
3:35 AM4 °C3 °C93 %1021 hPa16.1 kmSouth (190°)11.1 km/hClear
3:55 AM4 °C3 °C93 %1021 hPa16.1 kmSouth (180°)7.4 km/hClear
4:15 AM4 °C3 °C93 %1021 hPa16.1 kmSouth (190°)9.3 km/hScattered Clouds
4:35 AM3 °C2 °C93 %1021 hPa16.1 kmSouth (190°)5.6 km/hScattered Clouds
5:15 AM4 °C3 °C93 %1021 hPa16.1 kmSouth (180°)7.4 km/hMostly Cloudy
5:35 AM5 °C4 °C93 %1021.7 hPa16.1 kmSouth (190°)13 km/hOvercast
5:55 AM5 °C4 °C93 %1022 hPa16.1 kmSouth (190°)11.1 km/hOvercast
6:15 AM5 °C4 °C93 %1021.7 hPa16.1 kmSouth (180°)9.3 km/hMostly Cloudy
6:35 AM5 °C4 °C93 %1021.7 hPa16.1 kmSouth (190°)11.1 km/hPartly Cloudy
6:55 AM5 °C4 °C93 %1021.7 hPa16.1 kmSouth (190°)9.3 km/hScattered Clouds
7:15 AM5 °C4 °C93 %1021.3 hPa16.1 kmSouth (180°)7.4 km/hPartly Cloudy
7:35 AM4 °C4 °C100 %1021.3 hPa16.1 kmSSW (200°)11.1 km/hPartly Cloudy
7:55 AM4 °C3 °C93 %1021.7 hPa16.1 kmCalmClear
8:15 AM4 °C3 °C93 %1021.3 hPa14.5 kmNorthPartly Cloudy
8:35 AM4 °C4 °C100 %1021 hPa16.1 kmSE (130°)5.6 km/hScattered Clouds
8:55 AM5 °C3 °C87 %1021 hPa16.1 kmNorthMostly Cloudy
9:15 AM5 °C3 °C87 %1021 hPa16.1 kmCalmScattered Clouds
9:35 AM6 °C3 °C81 %1021 hPa16.1 kmSE (140°)5.6 km/hPartly Cloudy
9:55 AM6 °C3 °C81 %1021 hPa16.1 kmCalmClear
10:15 AM6 °C3 °C81 %1020.7 hPa16.1 kmSouth (170°)13 km/hClear
10:35 AM6 °C3 °C81 %1021 hPa16.1 kmSSE (160°)7.4 km/hPartly Cloudy
10:55 AM6 °C3 °C81 %1021 hPa16.1 kmSSE (150°)11.1 km/hPartly Cloudy
11:15 AM7 °C2 °C71 %1021 hPa16.1 kmSE (130°)11.1 km/hClear
11:35 AM7 °C3 °C76 %1020.7 hPa16.1 kmSouth (170°)5.6 km/hPartly Cloudy
11:55 AM7 °C3 °C76 %1020.3 hPa16.1 kmCalmMostly Cloudy
12:15 PM7 °C3 °C76 %1019.3 hPa16.1 kmSSE (150°)9.3 km/hOvercast
12:35 PM7 °C3 °C76 %1019 hPa16.1 kmEast (90°)7.4 km/hMostly Cloudy
12:55 PM7 °C2 °C71 %1019.3 hPa16.1 kmCalmScattered Clouds
3:15 PM7 °C1 °C66 %1017.6 hPa16.1 kmSouth (190°)14.8 km/hClear
3:35 PM7 °C0 °C61 %1017.6 hPa16.1 kmSSW (200°)7.4 km/hPartly Cloudy
3:55 PM7 °C0 °C61 %1017.3 hPa16.1 kmSouth (170°)5.6 km/hPartly Cloudy
4:15 PM7 °C1 °C66 %1017.6 hPa12.9 kmCalmRainLight Rain
4:35 PM6 °C2 °C76 %1017.6 hPa14.5 kmCalmRainLight Rain
4:55 PM5 °C3 °C87 %1017.9 hPa9.7 kmCalmRainLight Rain
5:15 PM5 °C3 °C87 %1017.3 hPa11.3 kmNorthRainLight Rain
5:35 PM5 °C3 °C87 %1017.3 hPa11.3 kmESE (110°)5.6 km/hRainLight Rain
5:55 PM5 °C3 °C87 %1017.3 hPa8 kmCalmRainLight Rain
6:15 PM6 °C3 °C81 %1016.9 hPa16.1 kmSouth (180°)5.6 km/hRainLight Rain
6:35 PM6 °C3 °C81 %1016.6 hPa16.1 kmCalmRainLight Rain
6:55 PM6 °C3 °C81 %1016.3 hPa14.5 kmSSE (160°)14.8 km/h29.6 km/hRainLight Rain
7:15 PM6 °C3 °C81 %1015.9 hPa11.3 kmSSE (160°)18.5 km/h33.3 km/hRainLight Rain
7:35 PM6 °C3 °C81 %1015.6 hPa14.5 kmSSE (160°)14.8 km/h29.6 km/hOvercast
7:55 PM6 °C3 °C81 %1015.6 hPa16.1 kmSouth (180°)16.7 km/h35.2 km/hOvercast
8:15 PM6 °C4 °C87 %1015.6 hPa16.1 kmSouth (180°)14.8 km/h31.5 km/hOvercast
8:35 PM6 °C4 °C87 %1015.6 hPa16.1 kmSouth (190°)16.7 km/hOvercast
8:55 PM6 °C4 °C87 %1015.6 hPa16.1 kmSouth (180°)14.8 km/h27.8 km/hOvercast
9:15 PM6 °C4 °C87 %1015.6 hPa16.1 kmSouth (170°)11.1 km/h31.5 km/hOvercast
9:35 PM6 °C4 °C87 %1014.9 hPa14.5 kmSouth (170°)13 km/h27.8 km/hRainLight Rain
9:55 PM7 °C4 °C81 %1014.9 hPa16.1 kmSouth (190°)18.5 km/h38.9 km/hOvercast
10:15 PM7 °C4 °C81 %1014.9 hPa16.1 kmSouth (180°)18.5 km/h29.6 km/hOvercast
10:35 PM7 °C4 °C81 %1014.6 hPa16.1 kmSouth (190°)20.4 km/h31.5 km/hOvercast
10:55 PM7 °C4 °C81 %1014.9 hPa16.1 kmSouth (190°)18.5 km/h35.2 km/hOvercast
11:15 PM7 °C4 °C81 %1015.2 hPa16.1 kmSouth (190°)20.4 km/h35.2 km/hRainLight Rain
11:35 PM7 °C4 °C81 %1014.9 hPa16.1 kmSouth (180°)13 km/h29.6 km/hRainLight Rain
11:55 PM7 °C4 °C81 %1014.9 hPa16.1 kmSouth (190°)22.2 km/h40.7 km/hOvercast
Hourly data recorded from CZBB, located 0 kilometers away from Vancouver, British Columbia







STORIES FROM OUR PARTNERS